FW0639 Weather Reports


Display with metric or nautical units.
time (UTC)temp
F
wind
direction
speed
MPH
gust
MPH
rain 1hr
in
rain 24hr
in
rain mn
in
humidity
%
barometer
mb
20260903163541 69 44 1.0 7.0 0.00 0.00 0.00 35 1005.2
20260903162521 69 16 2.0 10.0 0.00 0.00 0.00 34 1005.3
20260903161543 68 6 1.0 10.0 0.00 0.00 0.00 37 1005.3
20260903160509 66 20 2.0 7.0 0.00 0.00 0.00 37 1005.2
20260903155438 62 51 1.0 7.0 0.00 0.00 0.00 42 1005.1
20260903154453 59 113 0.0 0.0 0.00 0.00 0.00 60 1005.1
20260903152257 57 99 0.0 0.0 0.00 0.00 0.00 66 1005.4
20260903151236 56 346 0.0 0.0 0.00 0.00 0.00 68 1005.4
20260903150218 55 339 0.0 3.0 0.00 0.00 0.00 68 1005.5
20260903145155 54 339 0.0 0.0 0.00 0.00 0.00 69 1005.5
20260903144138 53 347 0.0 0.0 0.00 0.00 0.00 73 1005.5
20260903143115 53 354 0.0 0.0 0.00 0.00 0.00 73 1005.6
20260903142119 52 295 0.0 0.0 0.00 0.00 0.00 72 1005.5
20260903141046 52 2 0.0 0.0 0.00 0.00 0.00 70 1005.5
20260903140028 53 3 0.0 0.0 0.00 0.00 0.00 70 1005.3
20260903135029 53 3 0.0 0.0 0.00 0.00 0.00 66 1005.1
20260903132841 52 8 0.0 0.0 0.00 0.00 0.00 69 1005.0
20260903131857 52 9 0.0 0.0 0.00 0.00 0.00 69 1004.8
20260903130842 52 9 0.0 0.0 0.00 0.00 0.00 68 1004.8
20260903125822 52 9 0.0 0.0 0.00 0.00 0.00 67 1004.7
20260903124847 52 7 0.0 0.0 0.00 0.00 0.00 66 1004.6
20260903123836 52 7 0.0 1.0 0.00 0.00 0.00 65 1004.6
20260903122854 52 10 0.0 2.0 0.00 0.00 0.00 64 1004.6
20260903121917 52 323 0.0 0.0 0.00 0.00 0.00 66 1004.5
20260903120918 51 18 0.0 2.0 0.00 0.00 0.00 67 1004.6
20260903115910 51 21 0.0 2.0 0.00 0.00 0.00 71 1004.5
20260903114924 51 20 0.0 0.0 0.00 0.00 0.00 71 1004.6
20260903113918 51 20 0.0 0.0 0.00 0.00 0.00 71 1004.6
20260903112859 50 25 0.0 0.0 0.00 0.00 0.00 71 1004.6
20260903111835 50 37 0.0 0.0 0.00 0.00 0.00 71 1004.7
20260903110854 50 32 0.0 0.0 0.00 0.00 0.00 71 1004.7
20260903105854 50 32 0.0 0.0 0.00 0.00 0.00 71 1004.6
20260903104848 50 32 0.0 0.0 0.00 0.00 0.00 71 1004.6
20260903103824 50 30 0.0 0.0 0.00 0.00 0.00 71 1004.7
20260903102752 49 37 0.0 0.0 0.00 0.00 0.00 72 1004.7
20260903101810 49 42 0.0 0.0 0.00 0.00 0.00 72 1004.6
20260903095554 49 43 0.0 1.0 0.00 0.00 0.00 71 1004.6
20260903094537 49 51 0.0 0.0 0.00 0.00 0.00 71 1004.7
20260903092413 49 43 0.0 0.0 0.00 0.00 0.00 71 1004.7
20260903091438 49 41 0.0 0.0 0.00 0.00 0.00 71 1004.7
20260903085409 49 43 0.0 1.0 0.00 0.00 0.00 71 1004.4
20260903084350 49 44 0.0 0.0 0.00 0.00 0.00 71 1004.3
20260903083320 49 52 0.0 0.0 0.00 0.00 0.00 71 1004.4
20260903080016 49 51 0.0 0.0 0.00 0.00 0.00 69 1004.1
20260903073832 49 47 0.0 2.0 0.00 0.00 0.00 68 1004.2
20260903072842 49 45 0.0 0.0 0.00 0.00 0.00 69 1004.2
20260903071814 49 43 0.0 2.0 0.00 0.00 0.00 69 1004.2
20260903070743 49 42 0.0 0.0 0.00 0.00 0.00 69 1003.9
20260903065729 49 43 0.0 0.0 0.00 0.00 0.00 69 1004.1
20260903064659 50 39 0.0 3.0 0.00 0.00 0.00 68 1004.1
20260903063712 50 43 0.0 0.0 0.00 0.00 0.00 67 1003.8
20260903062701 50 37 0.0 0.0 0.00 0.00 0.00 67 1004.3
20260903061643 51 25 0.0 0.0 0.00 0.00 0.00 66 1004.4
20260903060623 52 29 0.0 0.0 0.00 0.00 0.00 64 1004.5
20260903055629 52 10 0.0 0.0 0.00 0.00 0.00 63 1004.3
20260903053433 54 3 0.0 0.0 0.00 0.00 0.00 60 1004.4
20260903052421 54 359 0.0 0.0 0.00 0.00 0.00 58 1004.2
20260903051441 55 1 0.0 2.0 0.00 0.00 0.00 57 1004.2
20260903050422 55 359 0.0 2.0 0.00 0.00 0.00 56 1004.2
20260903045358 56 358 0.0 0.0 0.00 0.00 0.00 54 1004.1
20260903044343 57 355 0.0 0.0 0.00 0.00 0.00 56 1004.1
20260903043345 57 352 0.0 0.0 0.00 0.00 0.00 51 1004.0
20260903042344 58 349 1.0 3.0 0.00 0.00 0.00 49 1004.1
20260903041315 59 349 0.0 3.0 0.00 0.00 0.00 48 1004.2
20260903040332 59 347 0.0 0.0 0.00 0.00 0.00 49 1004.1
20260903035259 60 345 0.0 0.0 0.00 0.00 0.00 48 1004.1
20260903034311 60 344 0.0 0.0 0.00 0.00 0.00 46 1003.9
20260903033334 60 344 0.0 0.0 0.00 0.00 0.00 47 1003.7
20260903032339 61 344 0.0 1.0 0.00 0.00 0.00 48 1003.7
20260903031354 61 343 0.0 0.0 0.00 0.00 0.00 49 1003.6
20260903030350 62 342 0.0 0.0 0.00 0.00 0.00 48 1003.6
20260903025334 63 342 0.0 0.0 0.00 0.00 0.00 48 1003.5
20260903024351 63 343 0.0 0.0 0.00 0.00 0.00 47 1003.2
20260903022219 65 341 0.0 1.0 0.00 0.00 0.00 45 1002.8
20260903021226 65 342 0.0 0.0 0.00 0.00 0.00 45 1002.7
20260903020235 66 341 0.0 0.0 0.00 0.00 0.00 44 1002.3
20260903015236 67 340 0.0 0.0 0.00 0.00 0.00 43 1002.2
20260903014212 68 340 0.0 0.0 0.00 0.00 0.00 42 1002.0
20260903013234 69 339 0.0 4.0 0.00 0.00 0.00 41 1002.1
20260903012254 69 339 0.0 4.0 0.00 0.00 0.00 40 1002.1
20260903011306 70 339 0.0 7.0 0.00 0.00 0.00 38 1002.0
20260903010329 71 340 0.0 3.0 0.00 0.00 0.00 39 1001.9
20260903005259 72 340 0.0 7.0 0.00 0.00 0.00 36 1001.6
20260903004307 73 340 0.0 2.0 0.00 0.00 0.00 35 1001.6
20260903003315 74 341 0.0 3.0 0.00 0.00 0.00 35 1001.7
20260903002326 75 340 1.0 10.0 0.00 0.00 0.00 34 1001.4
20260903001302 76 341 2.0 19.0 0.00 0.00 0.00 30 1001.2
20260902233926 74 338 0.0 4.0 0.00 0.00 0.00 30 999.9
20260902232911 76 338 0.0 4.0 0.00 0.00 0.00 29 999.8
20260902230649 79 14 3.0 16.0 0.00 0.00 0.00 23 999.6
20260902224523 85 68 5.0 14.0 0.00 0.00 0.00 20 999.2
20260902223531 85 7 6.0 21.0 0.00 0.00 0.00 20 999.0
20260902222547 85 57 5.0 21.0 0.00 0.00 0.00 20 998.9
20260902221549 84 348 5.0 16.0 0.00 0.00 0.00 19 999.0
20260902215423 87 107 5.0 14.0 0.00 0.00 0.00 18 998.9
20260902214349 86 120 6.0 13.0 0.00 0.00 0.00 22 998.8
20260902213346 86 86 2.0 9.0 0.00 0.00 0.00 26 999.1
20260902212405 85 112 4.0 22.0 0.00 0.00 0.00 27 999.1
20260902211400 84 59 4.0 15.0 0.00 0.00 0.00 26 999.3
20260902210341 82 11 2.0 8.0 0.00 0.00 0.00 22 999.5
20260902205343 81 337 6.0 22.0 0.00 0.00 0.00 23 999.7
20260902204400 83 345 5.0 15.0 0.00 0.00 0.00 26 1000.0
20260902203418 85 93 4.0 14.0 0.00 0.00 0.00 26 999.9
20260902201306 85 92 3.0 14.0 0.00 0.00 0.00 29 1000.0
20260902195118 85 161 5.0 12.0 0.00 0.00 0.00 29 1000.3
20260902194049 85 177 3.0 12.0 0.00 0.00 0.00 29 1000.4
20260902193031 84 183 3.0 9.0 0.00 0.00 0.00 30 1000.5
20260902192017 83 185 3.0 9.0 0.00 0.00 0.00 28 1000.6
20260902191006 80 193 0.0 5.0 0.00 0.00 0.00 36 1000.6
20260902190021 80 191 0.0 3.0 0.00 0.00 0.00 40 1000.8
20260902184951 80 185 0.0 0.0 0.00 0.00 0.00 41 1001.1
20260902182829 79 323 0.0 0.0 0.00 0.00 0.00 35 1001.4
20260902175508 79 179 0.0 4.0 0.00 0.00 0.00 39 1001.9
20260902174528 78 178 1.0 5.0 0.00 0.00 0.00 36 1001.9
20260902172415 77 193 0.0 3.0 0.00 0.00 0.00 40 1002.0
20260902171415 75 184 0.0 1.0 0.00 0.00 0.00 41 1002.2
20260902170353 73 183 0.0 1.0 0.00 0.00 0.00 45 1002.3
20260902165353 72 108 0.0 7.0 0.00 0.00 0.00 50 1002.5